TimeCST,TemperatureF,Dew PointF,Humidity,Sea Level PressureIn,VisibilityMPH,Wind Direction,Wind SpeedMPH,Gust SpeedMPH,PrecipitationIn,Events,Conditions,WindDirDegrees,DateUTC
12:52 AM,42.1,39.0,89,30.04,5.0,South,6.9,-,N/A,,Overcast,180,2012-11-06 06:52:00
1:29 AM,42.8,37.4,81,30.01,6.0,SSE,12.7,-,N/A,,Overcast,160,2012-11-06 07:29:00
1:52 AM,42.8,37.4,81,30.03,6.0,South,9.2,-,N/A,,Overcast,190,2012-11-06 07:52:00
2:52 AM,42.1,37.9,85,30.01,6.0,South,11.5,-,N/A,,Mostly Cloudy,190,2012-11-06 08:52:00
3:52 AM,42.1,37.0,82,29.98,7.0,South,13.8,-,N/A,,Overcast,180,2012-11-06 09:52:00
4:52 AM,42.1,37.0,82,29.97,7.0,SSW,10.4,-,N/A,,Overcast,210,2012-11-06 10:52:00
5:52 AM,42.1,36.0,79,29.97,10.0,SW,8.1,-,N/A,,Scattered Clouds,230,2012-11-06 11:52:00
6:35 AM,42.8,35.6,76,29.97,10.0,WSW,6.9,-,N/A,,Overcast,250,2012-11-06 12:35:00
6:52 AM,42.1,36.0,79,29.98,10.0,West,4.6,-,N/A,,Overcast,280,2012-11-06 12:52:00
7:07 AM,42.8,35.6,76,29.96,10.0,West,6.9,-,N/A,,Scattered Clouds,280,2012-11-06 13:07:00
7:52 AM,42.1,37.0,82,30.01,10.0,NW,12.7,-,N/A,,Partly Cloudy,310,2012-11-06 13:52:00
8:52 AM,46.9,37.0,68,30.03,10.0,NNW,21.9,31.1,N/A,,Clear,330,2012-11-06 14:52:00
9:52 AM,50.0,35.1,57,30.03,10.0,NNW,18.4,28.8,N/A,,Clear,330,2012-11-06 15:52:00
10:52 AM,52.0,34.0,50,30.04,10.0,NW,20.7,-,N/A,,Partly Cloudy,320,2012-11-06 16:52:00
11:52 AM,55.0,32.0,42,30.01,10.0,NNW,21.9,26.5,N/A,,Partly Cloudy,330,2012-11-06 17:52:00
12:52 PM,55.9,30.9,39,30.00,10.0,NW,20.7,31.1,N/A,,Scattered Clouds,320,2012-11-06 18:52:00
1:52 PM,57.0,30.0,36,29.99,10.0,NW,26.5,40.3,N/A,,Scattered Clouds,320,2012-11-06 19:52:00
2:52 PM,55.9,30.9,39,29.99,10.0,NNW,24.2,36.8,N/A,,Scattered Clouds,330,2012-11-06 20:52:00
3:52 PM,55.0,30.9,40,30.01,10.0,NNW,24.2,34.5,N/A,,Scattered Clouds,330,2012-11-06 21:52:00
4:52 PM,54.0,30.9,41,30.02,10.0,NW,17.3,26.5,N/A,,Scattered Clouds,320,2012-11-06 22:52:00
5:52 PM,48.9,30.9,50,30.04,10.0,NW,11.5,-,N/A,,Clear,320,2012-11-06 23:52:00
6:52 PM,48.9,30.9,50,30.06,10.0,WNW,9.2,-,N/A,,Clear,300,2012-11-07 00:52:00
7:52 PM,45.0,30.9,58,30.07,10.0,WNW,9.2,-,N/A,,Clear,300,2012-11-07 01:52:00
8:52 PM,42.1,30.9,65,30.09,10.0,NNE,5.8,-,N/A,,Clear,20,2012-11-07 02:52:00
9:52 PM,39.9,30.9,70,30.09,10.0,North,3.5,-,N/A,,Clear,360,2012-11-07 03:52:00
10:52 PM,39.0,30.0,70,30.09,10.0,NNW,4.6,-,N/A,,Clear,340,2012-11-07 04:52:00
11:52 PM,41.0,30.0,65,30.09,10.0,NNW,6.9,-,N/A,,Clear,340,2012-11-07 05:52:00